Hourly Data Report for July 10, 2017

TORONTO CITY
ONTARIO

43°40'00.000" N
79°24'00.000" W
112.50 m
6158355
71508
XTO

Download Data

Hourly Data (July 2017)
Hourly Data Report for July 10, 2017
TIME
LST
Temp Definition
°C
Dew Point Definition
°C
Rel Hum Definition
%
Precip. Amount Definition
mm

Wind Dir Definition
10's deg

Wind Spd Definition
km/h
Visibility Definition
km
Stn Press Definition
kPa
Hmdx Definition


Wind Chill Definition


Weather Definition


00:00 19.6 15.3 77 0.0 LegendMM LegendMM   100.11     LegendNANA
01:00 19.4 15.1 76 0.0 LegendMM LegendMM   100.04     LegendNANA
02:00 19.8 15.0 74 0.0 LegendMM LegendMM   100.02     LegendNANA
03:00 19.0 15.1 78 0.0 LegendMM LegendMM   100.00     LegendNANA
04:00 18.8 15.0 79 0.0 LegendMM LegendMM   99.97     LegendNANA
05:00 19.1 13.6 70 0.0 LegendMM LegendMM   99.96     LegendNANA
06:00 19.1 13.9 72 0.0 LegendMM LegendMM   99.97     LegendNANA
07:00 20.1 14.7 71 0.0 LegendMM LegendMM   99.96     LegendNANA
08:00 20.4 14.8 71 0.0 LegendMM LegendMM   99.98     LegendNANA
09:00 21.3 15.4 69 0.0 LegendMM LegendMM   99.96 26   LegendNANA
10:00 23.1 15.4 62 0.0 LegendMM LegendMM   99.97 27   LegendNANA
11:00 24.3 16.2 61 0.0 LegendMM LegendMM   99.97 29   LegendNANA
12:00 24.7 15.9 58 0.0 LegendMM LegendMM   99.94 29   LegendNANA
13:00 23.9 15.3 59 0.0 LegendMM LegendMM   99.94 28   LegendNANA
14:00 23.0 15.3 62 0.0 LegendMM LegendMM   99.93 27   LegendNANA
15:00 21.2 17.1 77 0.0 LegendMM LegendMM   99.92 27   LegendNANA
16:00 22.1 17.4 75 0.0 LegendMM LegendMM   99.87 28   LegendNANA
17:00 21.7 17.4 77 0.0 LegendMM LegendMM   99.82 27   LegendNANA
18:00 22.1 18.0 77 0.0 LegendMM LegendMM   99.82 28   LegendNANA
19:00 21.6 17.9 80 0.0 LegendMM LegendMM   99.85 28   LegendNANA
20:00 21.1 17.8 81 0.0 LegendMM LegendMM   99.82 27   LegendNANA
21:00 20.4 16.9 80 0.0 LegendMM LegendMM   99.85 26   LegendNANA
22:00 20.2 17.4 84 0.0 LegendMM LegendMM   99.86 26   LegendNANA
23:00 19.4 17.4 88 0.0 LegendMM LegendMM   99.87     LegendNANA

Notes on Data Quality.

Legend

  • E = Estimated
  • M = Missing
  • NA = Not Available*
  • [empty] = Indicates an unobserved value
Date modified: